Year,Month,Day,Hour,Minute,Value (Times are PST for temperature in C)
2022,01,29,00,00,1.00
2022,01,29,00,01,1.00
2022,01,29,00,02,1.00
2022,01,29,00,03,1.00
2022,01,29,00,04,1.00
2022,01,29,00,05,1.00
2022,01,29,00,06,1.00
2022,01,29,00,07,1.00
2022,01,29,00,08,1.00
2022,01,29,00,09,1.10
2022,01,29,00,10,1.00
2022,01,29,00,11,1.10
2022,01,29,00,12,1.10
2022,01,29,00,13,1.10
2022,01,29,00,14,1.10
2022,01,29,00,15,1.10
2022,01,29,00,16,1.10
2022,01,29,00,17,1.10
2022,01,29,00,18,1.10
2022,01,29,00,19,1.10
2022,01,29,00,20,1.10
2022,01,29,00,21,1.10
2022,01,29,00,22,1.10
2022,01,29,00,23,1.10
2022,01,29,00,24,1.10
2022,01,29,00,25,1.10
2022,01,29,00,26,1.10
2022,01,29,00,27,1.10
2022,01,29,00,28,1.20
2022,01,29,00,29,1.20
2022,01,29,00,30,1.30
2022,01,29,00,31,1.30
2022,01,29,00,32,1.30
2022,01,29,00,33,1.30
2022,01,29,00,34,1.30
2022,01,29,00,35,1.30
2022,01,29,00,36,1.30
2022,01,29,00,37,1.30
2022,01,29,00,38,1.40
2022,01,29,00,39,1.40
2022,01,29,00,40,1.50
2022,01,29,00,41,1.60
2022,01,29,00,42,1.60
2022,01,29,00,43,1.60
2022,01,29,00,44,1.70
2022,01,29,00,45,1.70
2022,01,29,00,46,1.70
2022,01,29,00,47,1.70
2022,01,29,00,48,1.70
2022,01,29,00,49,1.70
2022,01,29,00,50,1.80
2022,01,29,00,51,1.80
2022,01,29,00,52,1.80
2022,01,29,00,53,1.80
2022,01,29,00,54,1.80
2022,01,29,00,55,1.80
2022,01,29,00,56,1.80
2022,01,29,00,57,1.80
2022,01,29,00,58,1.80
2022,01,29,00,59,1.80
2022,01,29,01,00,1.80
2022,01,29,01,01,1.70
2022,01,29,01,02,1.70
2022,01,29,01,03,1.70
2022,01,29,01,04,1.70
2022,01,29,01,05,1.70
2022,01,29,01,06,1.70
2022,01,29,01,07,1.70
2022,01,29,01,08,1.70
2022,01,29,01,09,1.70
2022,01,29,01,10,1.70
2022,01,29,01,11,1.70
2022,01,29,01,12,1.70
2022,01,29,01,13,1.70
2022,01,29,01,14,1.80
2022,01,29,01,15,1.80
2022,01,29,01,16,2.00
2022,01,29,01,17,2.10
2022,01,29,01,18,2.20
2022,01,29,01,19,2.30
2022,01,29,01,20,2.40
2022,01,29,01,21,2.50
2022,01,29,01,22,2.50
2022,01,29,01,23,2.60
2022,01,29,01,24,2.60
2022,01,29,01,25,2.70
2022,01,29,01,26,2.70
2022,01,29,01,27,2.70
2022,01,29,01,28,2.60
2022,01,29,01,29,2.60
2022,01,29,01,30,2.60
2022,01,29,01,31,2.60
2022,01,29,01,32,2.60
2022,01,29,01,33,2.60
2022,01,29,01,34,2.60
2022,01,29,01,35,2.60
2022,01,29,01,36,2.60
2022,01,29,01,37,2.60
2022,01,29,01,38,2.60
2022,01,29,01,39,2.60
2022,01,29,01,40,2.60
2022,01,29,01,41,2.60
2022,01,29,01,42,2.50
2022,01,29,01,43,2.50
2022,01,29,01,44,2.50
2022,01,29,01,45,2.50
2022,01,29,01,46,2.60
2022,01,29,01,47,2.60
2022,01,29,01,48,2.50
2022,01,29,01,49,2.50
2022,01,29,01,50,2.50
2022,01,29,01,51,2.50
2022,01,29,01,52,2.50
2022,01,29,01,53,2.60
2022,01,29,01,54,2.60
2022,01,29,01,55,2.60
2022,01,29,01,56,2.60
2022,01,29,01,57,2.60
2022,01,29,01,58,2.60
2022,01,29,01,59,2.60
2022,01,29,02,00,2.60
2022,01,29,02,01,2.70
2022,01,29,02,02,2.70
2022,01,29,02,03,2.70
2022,01,29,02,04,2.70
2022,01,29,02,05,2.80
2022,01,29,02,06,2.80
2022,01,29,02,07,2.90
2022,01,29,02,08,2.90
2022,01,29,02,09,2.90
2022,01,29,02,10,2.90
2022,01,29,02,11,2.90
2022,01,29,02,12,2.90
2022,01,29,02,13,2.90
2022,01,29,02,14,2.90
2022,01,29,02,15,2.90
2022,01,29,02,16,2.90
2022,01,29,02,17,2.90
2022,01,29,02,18,2.90
2022,01,29,02,19,2.90
2022,01,29,02,20,2.90
2022,01,29,02,21,2.90
2022,01,29,02,22,2.80
2022,01,29,02,23,2.80
2022,01,29,02,24,2.70
2022,01,29,02,25,2.70
2022,01,29,02,26,2.70
2022,01,29,02,27,2.70
2022,01,29,02,28,2.60
2022,01,29,02,29,2.60
2022,01,29,02,30,2.60
2022,01,29,02,31,2.60
2022,01,29,02,32,2.60
2022,01,29,02,33,2.60
2022,01,29,02,34,2.60
2022,01,29,02,35,2.60
2022,01,29,02,36,2.60
2022,01,29,02,37,2.60
2022,01,29,02,38,2.60
2022,01,29,02,39,2.60
2022,01,29,02,40,2.70
2022,01,29,02,41,2.70
2022,01,29,02,42,2.70
2022,01,29,02,43,2.80
2022,01,29,02,44,2.80
2022,01,29,02,45,2.80
2022,01,29,02,46,2.90
2022,01,29,02,47,2.90
2022,01,29,02,48,3.00
2022,01,29,02,49,3.00
2022,01,29,02,50,3.10
2022,01,29,02,51,3.10
2022,01,29,02,52,3.10
2022,01,29,02,53,3.10
2022,01,29,02,54,3.20
2022,01,29,02,55,3.20
2022,01,29,02,56,3.20
2022,01,29,02,57,3.20
2022,01,29,02,58,3.20
2022,01,29,02,59,3.10
2022,01,29,03,00,3.10
2022,01,29,03,01,3.10
2022,01,29,03,02,3.00
2022,01,29,03,03,3.00
2022,01,29,03,04,2.90
2022,01,29,03,05,2.90
2022,01,29,03,06,2.90
2022,01,29,03,07,2.90
2022,01,29,03,08,2.80
2022,01,29,03,09,2.80
2022,01,29,03,10,2.80
2022,01,29,03,11,2.80
2022,01,29,03,12,2.80
2022,01,29,03,13,2.90
2022,01,29,03,14,2.90
2022,01,29,03,15,2.90
2022,01,29,03,16,2.90
2022,01,29,03,17,2.90
2022,01,29,03,18,2.90
2022,01,29,03,19,3.00
2022,01,29,03,20,3.00
2022,01,29,03,21,3.00
2022,01,29,03,22,3.00
2022,01,29,03,23,3.10
2022,01,29,03,24,3.10
2022,01,29,03,25,3.10
2022,01,29,03,26,3.10
2022,01,29,03,27,3.10
2022,01,29,03,28,3.10
2022,01,29,03,29,3.10
2022,01,29,03,30,3.20
2022,01,29,03,31,3.20
2022,01,29,03,32,3.20
2022,01,29,03,33,3.20
2022,01,29,03,34,3.20
2022,01,29,03,35,3.20
2022,01,29,03,36,3.20
2022,01,29,03,37,3.20
2022,01,29,03,38,3.20
2022,01,29,03,39,3.20
2022,01,29,03,40,3.20
2022,01,29,03,41,3.20
2022,01,29,03,42,3.20
2022,01,29,03,43,3.20
2022,01,29,03,44,3.20
2022,01,29,03,45,3.20
2022,01,29,03,46,3.20
2022,01,29,03,47,3.20
2022,01,29,03,48,3.20
2022,01,29,03,49,3.20
2022,01,29,03,50,3.20
2022,01,29,03,51,3.20
2022,01,29,03,52,3.20
2022,01,29,03,53,3.30
2022,01,29,03,54,3.30
2022,01,29,03,55,3.30
2022,01,29,03,56,3.30
2022,01,29,03,57,3.30
2022,01,29,03,58,3.30
2022,01,29,03,59,3.30
2022,01,29,04,00,3.30
2022,01,29,04,01,3.30
2022,01,29,04,02,3.30
2022,01,29,04,03,3.30
2022,01,29,04,04,3.30
2022,01,29,04,05,3.30
2022,01,29,04,06,3.30
2022,01,29,04,07,3.30
2022,01,29,04,08,3.30
2022,01,29,04,09,3.30
2022,01,29,04,10,3.30
2022,01,29,04,11,3.30
2022,01,29,04,12,3.30
2022,01,29,04,13,3.30
2022,01,29,04,14,3.30
2022,01,29,04,15,3.30
2022,01,29,04,16,3.30
2022,01,29,04,17,3.30
2022,01,29,04,18,3.30
2022,01,29,04,19,3.30
2022,01,29,04,20,3.30
2022,01,29,04,21,3.30
2022,01,29,04,22,3.30
2022,01,29,08,36,2.70
2022,01,29,08,37,2.70
2022,01,29,08,38,2.70
2022,01,29,08,39,2.70
2022,01,29,08,40,2.70
2022,01,29,08,41,2.80
2022,01,29,08,42,2.80
2022,01,29,08,43,2.80
2022,01,29,08,44,2.80
2022,01,29,08,45,2.80
2022,01,29,08,46,2.80
2022,01,29,08,47,2.80
2022,01,29,08,48,2.80
2022,01,29,08,49,2.80
2022,01,29,08,50,2.70
2022,01,29,08,51,2.70
2022,01,29,08,52,2.70
2022,01,29,08,53,2.70
2022,01,29,08,54,2.70
2022,01,29,08,55,2.60
2022,01,29,08,56,2.60
2022,01,29,08,57,2.60
2022,01,29,08,58,2.60
2022,01,29,08,59,2.60
2022,01,29,09,00,2.60
2022,01,29,09,01,2.60
2022,01,29,09,02,2.60
2022,01,29,09,03,2.60
2022,01,29,09,04,2.60
2022,01,29,09,05,2.60
2022,01,29,09,06,2.60
2022,01,29,09,07,2.70
2022,01,29,09,08,2.70
2022,01,29,09,09,2.70
2022,01,29,09,10,2.70
2022,01,29,09,11,2.70
2022,01,29,09,12,2.80
2022,01,29,09,13,2.80
2022,01,29,09,14,2.80
2022,01,29,09,15,2.80
2022,01,29,09,16,2.80
2022,01,29,09,17,2.90
2022,01,29,09,18,2.90
2022,01,29,09,19,2.90
2022,01,29,09,20,2.90
2022,01,29,09,21,3.00
2022,01,29,09,22,3.00
2022,01,29,09,23,3.00
2022,01,29,09,24,3.00
2022,01,29,09,25,3.10
2022,01,29,09,26,3.10
2022,01,29,09,27,3.10
2022,01,29,09,28,3.10
2022,01,29,09,29,3.10
2022,01,29,09,30,3.20
2022,01,29,09,31,3.20
2022,01,29,09,32,3.20
2022,01,29,09,33,3.20
2022,01,29,09,34,3.20
2022,01,29,09,35,3.20
2022,01,29,09,36,3.30
2022,01,29,09,37,3.30
2022,01,29,09,38,3.30
2022,01,29,09,39,3.30
2022,01,29,09,40,3.30
2022,01,29,09,41,3.30
2022,01,29,09,42,3.30
2022,01,29,09,43,3.40
2022,01,29,09,44,3.40
2022,01,29,09,45,3.40
2022,01,29,09,46,3.40
2022,01,29,09,47,3.40
2022,01,29,09,48,3.40
2022,01,29,09,49,3.40
2022,01,29,09,50,3.50
2022,01,29,09,51,3.50
2022,01,29,09,52,3.50
2022,01,29,09,53,3.50
2022,01,29,09,54,3.50
2022,01,29,09,55,3.60
2022,01,29,09,56,3.60
2022,01,29,09,57,3.60
2022,01,29,09,58,3.60
2022,01,29,09,59,3.60
2022,01,29,10,00,3.60
2022,01,29,10,01,3.70
2022,01,29,10,02,3.70
2022,01,29,10,03,3.70
2022,01,29,10,04,3.70
2022,01,29,10,05,3.70
2022,01,29,10,06,3.70
2022,01,29,10,07,3.70
2022,01,29,10,08,3.70
2022,01,29,10,09,3.80
2022,01,29,10,10,3.80
2022,01,29,10,11,3.80
2022,01,29,10,12,3.80
2022,01,29,10,13,3.80
2022,01,29,10,14,3.80
2022,01,29,10,15,3.80
2022,01,29,10,16,3.80
2022,01,29,10,17,3.90
2022,01,29,10,18,3.90
2022,01,29,10,19,3.90
2022,01,29,10,20,3.90
2022,01,29,10,21,3.90
2022,01,29,10,22,3.90
2022,01,29,10,23,4.00
2022,01,29,10,24,4.00
2022,01,29,10,25,4.00
2022,01,29,10,26,4.00
2022,01,29,10,27,4.00
2022,01,29,10,28,4.10
2022,01,29,10,29,4.10
2022,01,29,10,30,4.10
2022,01,29,10,31,4.10
2022,01,29,10,32,4.10
2022,01,29,10,33,4.10
2022,01,29,10,34,4.20
2022,01,29,10,35,4.20
2022,01,29,10,36,4.20
2022,01,29,10,37,4.30
2022,01,29,10,38,4.30
2022,01,29,10,39,4.30
2022,01,29,10,40,4.30
2022,01,29,10,41,4.30
2022,01,29,10,42,4.40
2022,01,29,10,43,4.40
2022,01,29,10,44,4.40
2022,01,29,10,45,4.50
2022,01,29,10,46,4.50
2022,01,29,10,47,4.50
2022,01,29,10,48,4.50
2022,01,29,10,49,4.60
2022,01,29,10,50,4.60
2022,01,29,10,51,4.60
2022,01,29,10,52,4.70
2022,01,29,10,53,4.70
2022,01,29,10,54,4.70
2022,01,29,10,55,4.70
2022,01,29,10,56,4.70
2022,01,29,10,57,4.70
2022,01,29,10,58,4.70
2022,01,29,10,59,4.70
2022,01,29,11,00,4.70
2022,01,29,11,01,4.80
2022,01,29,11,02,4.80
2022,01,29,11,03,4.80
2022,01,29,11,04,4.80
2022,01,29,11,05,4.80
2022,01,29,11,06,4.80
2022,01,29,11,07,4.80
2022,01,29,11,08,4.90
2022,01,29,11,09,4.90
2022,01,29,11,10,4.90
2022,01,29,11,11,5.00
2022,01,29,11,12,5.00
2022,01,29,11,13,5.00
2022,01,29,11,14,5.00
2022,01,29,11,15,5.10
2022,01,29,11,16,5.10
2022,01,29,11,17,5.10
2022,01,29,11,18,5.20
2022,01,29,11,19,5.20
2022,01,29,11,20,5.20
2022,01,29,11,21,5.20
2022,01,29,11,22,5.20
2022,01,29,11,23,5.20
2022,01,29,11,24,5.20
2022,01,29,11,25,5.30
2022,01,29,11,26,5.30
2022,01,29,11,27,5.30
2022,01,29,11,28,5.30
2022,01,29,11,29,5.40
2022,01,29,11,30,5.40
2022,01,29,11,31,5.40
2022,01,29,11,32,5.40
2022,01,29,11,33,5.50
2022,01,29,11,34,5.50
2022,01,29,11,35,5.60
2022,01,29,11,36,5.60
2022,01,29,11,37,5.60
2022,01,29,11,38,5.70
2022,01,29,11,39,5.70
2022,01,29,11,40,5.70
2022,01,29,11,41,5.80
2022,01,29,11,42,5.80
2022,01,29,11,43,5.80
2022,01,29,11,44,5.80
2022,01,29,11,45,5.80
2022,01,29,11,46,5.80
2022,01,29,11,47,5.80
2022,01,29,11,48,5.80
2022,01,29,11,49,5.80
2022,01,29,11,50,5.80
2022,01,29,11,51,5.90
2022,01,29,11,52,5.90
2022,01,29,11,53,5.90
2022,01,29,11,54,6.00
2022,01,29,11,55,6.00
2022,01,29,11,56,6.00
2022,01,29,11,57,6.10
2022,01,29,11,58,6.10
2022,01,29,11,59,6.10
2022,01,29,12,00,6.10
2022,01,29,12,01,6.20
2022,01,29,12,02,6.20
2022,01,29,12,03,6.20
2022,01,29,12,04,6.20
2022,01,29,12,05,6.20
2022,01,29,12,06,6.30
2022,01,29,12,07,6.30
2022,01,29,12,08,6.30
2022,01,29,12,09,6.30
2022,01,29,12,10,6.30
2022,01,29,12,11,6.30
2022,01,29,12,12,6.40
2022,01,29,12,13,6.40
2022,01,29,12,14,6.40
2022,01,29,12,15,6.40
2022,01,29,12,16,6.40
2022,01,29,12,17,6.50
2022,01,29,12,18,6.50
2022,01,29,12,19,6.50
2022,01,29,12,20,6.50
2022,01,29,12,21,6.50
2022,01,29,12,22,6.60
2022,01,29,12,23,6.60
2022,01,29,12,24,6.60
2022,01,29,12,25,6.60
2022,01,29,12,26,6.70
2022,01,29,12,27,6.70
2022,01,29,12,28,6.70
2022,01,29,12,29,6.70
2022,01,29,12,30,6.80
2022,01,29,12,31,6.80
2022,01,29,12,32,6.80
2022,01,29,12,33,6.80
2022,01,29,12,34,6.80
2022,01,29,12,35,6.80
2022,01,29,12,36,6.80
2022,01,29,12,37,6.80
2022,01,29,12,38,6.80
2022,01,29,12,39,6.80
2022,01,29,12,40,6.90
2022,01,29,12,41,6.90
2022,01,29,12,42,6.90
2022,01,29,12,43,6.90
2022,01,29,12,44,6.90
2022,01,29,12,45,6.90
2022,01,29,12,46,6.90
2022,01,29,12,47,6.90
2022,01,29,12,48,6.90
2022,01,29,12,49,6.90
2022,01,29,12,50,6.90
2022,01,29,12,51,7.00
2022,01,29,12,52,7.00
2022,01,29,12,53,7.00
2022,01,29,12,54,7.00
2022,01,29,12,55,7.00
2022,01,29,12,56,7.00
2022,01,29,12,57,7.00
2022,01,29,12,58,7.00
2022,01,29,12,59,7.00
2022,01,29,13,00,7.00
2022,01,29,13,01,7.00
2022,01,29,13,02,7.00
2022,01,29,13,03,7.00
2022,01,29,13,04,7.00
2022,01,29,13,05,7.00
2022,01,29,13,06,7.00
2022,01,29,13,07,7.00
2022,01,29,13,08,7.10
2022,01,29,13,09,7.10
2022,01,29,13,10,7.10
2022,01,29,13,11,7.10
2022,01,29,13,12,7.10
2022,01,29,13,13,7.10
2022,01,29,13,14,7.10
2022,01,29,13,15,7.10
2022,01,29,13,16,7.10
2022,01,29,13,17,7.10
2022,01,29,13,18,7.10
2022,01,29,13,19,7.10
2022,01,29,13,20,7.10
2022,01,29,13,21,7.10
2022,01,29,13,22,7.10
2022,01,29,13,23,7.10
2022,01,29,13,24,7.20
2022,01,29,13,25,7.20
2022,01,29,13,26,7.20
2022,01,29,13,27,7.20
2022,01,29,13,28,7.20
2022,01,29,13,29,7.20
2022,01,29,13,30,7.30
2022,01,29,13,31,7.30
2022,01,29,13,32,7.30
2022,01,29,13,33,7.30
2022,01,29,13,34,7.30
2022,01,29,13,35,7.30
2022,01,29,13,36,7.40
2022,01,29,13,37,7.40
2022,01,29,13,38,7.40
2022,01,29,13,39,7.40
2022,01,29,13,40,7.40
2022,01,29,13,41,7.50
2022,01,29,13,42,7.50
2022,01,29,13,43,7.50
2022,01,29,13,44,7.50
2022,01,29,13,45,7.50
2022,01,29,13,46,7.50
2022,01,29,13,47,7.50
2022,01,29,13,48,7.50
2022,01,29,13,49,7.50
2022,01,29,13,50,7.50
2022,01,29,13,51,7.50
2022,01,29,13,52,7.60
2022,01,29,13,53,7.60
2022,01,29,13,54,7.60
2022,01,29,13,55,7.50
2022,01,29,13,56,7.50
2022,01,29,13,57,7.40
2022,01,29,13,58,7.30
2022,01,29,13,59,7.30
2022,01,29,14,00,7.30
2022,01,29,14,01,7.20
2022,01,29,14,02,7.20
2022,01,29,14,03,7.20
2022,01,29,14,04,7.20
2022,01,29,14,05,7.20
2022,01,29,14,06,7.20
2022,01,29,14,07,7.20
2022,01,29,14,08,7.10
2022,01,29,14,09,7.10
2022,01,29,14,10,7.10
2022,01,29,14,11,7.10
2022,01,29,14,12,7.10
2022,01,29,14,13,7.10
2022,01,29,14,14,7.10
2022,01,29,14,15,7.10
2022,01,29,14,16,7.10
2022,01,29,14,17,7.10
2022,01,29,14,18,7.10
2022,01,29,14,19,7.10
2022,01,29,14,20,7.10
2022,01,29,14,21,7.10
2022,01,29,14,22,7.10
2022,01,29,14,23,7.10
2022,01,29,14,24,7.10
2022,01,29,14,25,7.10
2022,01,29,14,26,7.10
2022,01,29,14,27,7.10
2022,01,29,14,28,7.00
2022,01,29,14,29,7.00
2022,01,29,14,30,7.00
2022,01,29,14,31,7.00
2022,01,29,14,32,7.00
2022,01,29,14,33,7.00
2022,01,29,14,34,7.00
2022,01,29,14,35,7.10
2022,01,29,14,36,7.10
2022,01,29,14,37,7.10
2022,01,29,14,38,7.00
2022,01,29,14,39,7.00
2022,01,29,14,40,7.00
2022,01,29,14,41,7.00
2022,01,29,14,42,6.90
2022,01,29,14,43,6.90
2022,01,29,14,44,6.90
2022,01,29,14,45,7.00
2022,01,29,14,46,7.00
2022,01,29,14,47,7.00
2022,01,29,14,48,7.00
2022,01,29,14,49,7.00
2022,01,29,14,50,7.00
2022,01,29,14,51,7.00
2022,01,29,14,52,7.10
2022,01,29,14,53,7.10
2022,01,29,14,54,7.10
2022,01,29,14,55,7.10
2022,01,29,14,56,7.10
2022,01,29,14,57,7.10
2022,01,29,14,58,7.10
2022,01,29,14,59,7.10
2022,01,29,15,00,7.10
2022,01,29,15,01,7.10
2022,01,29,15,02,7.00
2022,01,29,15,03,7.00
2022,01,29,15,04,7.00
2022,01,29,15,05,7.00
2022,01,29,15,06,7.00
2022,01,29,15,07,7.00
2022,01,29,15,08,7.00
2022,01,29,15,09,7.00
2022,01,29,15,10,7.00
2022,01,29,15,11,7.10
2022,01,29,15,12,7.10
2022,01,29,15,13,7.10
2022,01,29,15,14,7.10
2022,01,29,15,15,7.10
2022,01,29,15,16,7.10
2022,01,29,15,17,7.10
2022,01,29,15,18,7.10
2022,01,29,15,19,7.10
2022,01,29,15,20,7.10
2022,01,29,15,21,7.10
2022,01,29,15,22,7.10
2022,01,29,15,23,7.10
2022,01,29,15,24,7.10
2022,01,29,15,25,7.10
2022,01,29,15,26,7.10
2022,01,29,15,27,7.10
2022,01,29,15,28,7.10
2022,01,29,15,29,7.10
2022,01,29,15,30,7.10
2022,01,29,15,31,7.00
2022,01,29,15,32,7.00
2022,01,29,15,33,7.00
2022,01,29,15,34,7.00
2022,01,29,15,35,7.00
2022,01,29,15,36,6.90
2022,01,29,15,37,6.90
2022,01,29,15,38,6.90
2022,01,29,15,39,6.90
2022,01,29,15,40,6.90
2022,01,29,15,41,6.80
2022,01,29,15,42,6.80
2022,01,29,15,43,6.80
2022,01,29,15,44,6.80
2022,01,29,15,45,6.80
2022,01,29,15,46,6.80
2022,01,29,15,47,6.80
2022,01,29,15,48,6.80
2022,01,29,15,49,6.80
2022,01,29,15,50,6.80
2022,01,29,15,51,6.80
2022,01,29,15,52,6.80
2022,01,29,15,53,6.70
2022,01,29,15,54,6.70
2022,01,29,15,55,6.70
2022,01,29,15,56,6.70
2022,01,29,15,57,6.70
2022,01,29,15,58,6.70
2022,01,29,15,59,6.70
2022,01,29,16,00,6.70
2022,01,29,16,01,6.60
2022,01,29,16,02,6.60
2022,01,29,16,03,6.60
2022,01,29,16,04,6.60
2022,01,29,16,05,6.60
2022,01,29,16,06,6.60
2022,01,29,16,07,6.60
2022,01,29,16,08,6.60
2022,01,29,16,09,6.60
2022,01,29,16,10,6.60
2022,01,29,16,11,6.60
2022,01,29,16,12,6.60
2022,01,29,16,13,6.60
2022,01,29,16,14,6.60
2022,01,29,16,15,6.50
2022,01,29,16,16,6.50
2022,01,29,16,17,6.50
2022,01,29,16,18,6.50
2022,01,29,16,19,6.50
2022,01,29,16,20,6.50
2022,01,29,16,21,6.50
2022,01,29,16,22,6.50
2022,01,29,16,23,6.50
2022,01,29,16,24,6.40
2022,01,29,16,25,6.40
2022,01,29,16,26,6.40
2022,01,29,16,27,6.50
2022,01,29,16,28,6.40
2022,01,29,16,29,6.50
2022,01,29,16,30,6.40
2022,01,29,16,31,6.40
2022,01,29,16,32,6.40
2022,01,29,16,33,6.40
2022,01,29,16,34,6.40
2022,01,29,16,35,6.40
2022,01,29,16,36,6.40
2022,01,29,16,37,6.40
2022,01,29,16,38,6.40
2022,01,29,16,39,6.40
2022,01,29,16,40,6.40
2022,01,29,16,41,6.40
2022,01,29,16,42,6.40
2022,01,29,16,43,6.30
2022,01,29,16,44,6.30
2022,01,29,16,45,6.30
2022,01,29,16,46,6.30
2022,01,29,16,47,6.30
2022,01,29,16,48,6.30
2022,01,29,16,49,6.30
2022,01,29,16,50,6.30
2022,01,29,16,51,6.30
2022,01,29,16,52,6.30
2022,01,29,16,53,6.30
2022,01,29,16,54,6.30
2022,01,29,16,55,6.30
2022,01,29,16,56,6.30
2022,01,29,16,57,6.20
2022,01,29,16,58,6.20
2022,01,29,16,59,6.20
2022,01,29,17,00,6.20
2022,01,29,17,01,6.20
2022,01,29,17,02,6.20
2022,01,29,17,03,6.20
2022,01,29,17,04,6.20
2022,01,29,17,05,6.20
2022,01,29,17,06,6.20
2022,01,29,17,07,6.20
2022,01,29,17,08,6.20
2022,01,29,17,09,6.20
2022,01,29,17,10,6.20
2022,01,29,17,11,6.20
2022,01,29,17,12,6.20
2022,01,29,17,13,6.20
2022,01,29,17,14,6.20
2022,01,29,17,15,6.20
2022,01,29,17,16,6.20
2022,01,29,17,17,6.20
2022,01,29,17,18,6.20
2022,01,29,17,19,6.20
2022,01,29,17,20,6.20
2022,01,29,17,21,6.20
2022,01,29,17,22,6.10
2022,01,29,17,23,6.10
2022,01,29,17,24,6.10
2022,01,29,17,25,6.10
2022,01,29,17,26,6.10
2022,01,29,17,27,6.10
2022,01,29,17,28,6.10
2022,01,29,17,29,6.10
2022,01,29,17,30,6.10
2022,01,29,17,31,6.10
2022,01,29,17,32,6.10
2022,01,29,17,33,6.10
2022,01,29,17,34,6.10
2022,01,29,17,35,6.10
2022,01,29,17,36,6.10
2022,01,29,17,37,6.10
2022,01,29,17,38,6.10
2022,01,29,17,39,6.10
2022,01,29,17,40,6.10
2022,01,29,17,41,6.10
2022,01,29,17,42,6.10
2022,01,29,17,43,6.10
2022,01,29,17,44,6.10
2022,01,29,17,45,6.10
2022,01,29,17,46,6.10
2022,01,29,17,47,6.00
2022,01,29,17,48,6.10
2022,01,29,17,49,6.00
2022,01,29,17,50,6.10
2022,01,29,17,51,6.00
2022,01,29,17,52,6.00
2022,01,29,17,53,6.00
2022,01,29,17,54,6.10
2022,01,29,17,55,6.10
2022,01,29,17,56,6.00
2022,01,29,17,57,6.00
2022,01,29,17,58,6.00
2022,01,29,17,59,6.00
2022,01,29,18,00,6.00
2022,01,29,18,01,6.00
2022,01,29,18,02,6.00
2022,01,29,18,03,6.00
2022,01,29,18,04,6.00
2022,01,29,18,05,6.00
2022,01,29,18,06,6.00
2022,01,29,18,07,6.00
2022,01,29,18,08,6.00
2022,01,29,18,09,6.00
2022,01,29,18,10,6.00
2022,01,29,18,11,6.00
2022,01,29,18,12,5.90
2022,01,29,18,13,5.90
2022,01,29,18,14,5.90
2022,01,29,18,15,5.90
2022,01,29,18,16,5.90
2022,01,29,18,17,5.90
2022,01,29,18,18,5.90
2022,01,29,18,19,5.90
2022,01,29,18,20,5.90
2022,01,29,18,21,5.90
2022,01,29,18,22,5.90
2022,01,29,18,23,5.90
2022,01,29,18,24,5.90
2022,01,29,18,25,5.90
2022,01,29,18,26,5.90
2022,01,29,18,27,5.90
2022,01,29,18,28,5.80
2022,01,29,18,29,5.80
2022,01,29,18,30,5.80
2022,01,29,18,31,5.80
2022,01,29,18,32,5.80
2022,01,29,18,33,5.80
2022,01,29,18,34,5.80
2022,01,29,18,35,5.80
2022,01,29,18,36,5.80
2022,01,29,18,37,5.80
2022,01,29,18,38,5.70
2022,01,29,18,39,5.70
2022,01,29,18,40,5.70
2022,01,29,18,41,5.70
2022,01,29,18,42,5.70
2022,01,29,18,43,5.70
2022,01,29,18,44,5.70
2022,01,29,18,45,5.70
2022,01,29,18,46,5.70
2022,01,29,18,47,5.70
2022,01,29,18,48,5.70
2022,01,29,18,49,5.70
2022,01,29,18,50,5.70
2022,01,29,18,51,5.70
2022,01,29,18,52,5.70
2022,01,29,18,53,5.70
2022,01,29,18,54,5.60
2022,01,29,18,55,5.60
2022,01,29,18,56,5.60
2022,01,29,18,57,5.60
2022,01,29,18,58,5.60
2022,01,29,18,59,5.60
2022,01,29,19,00,5.60
2022,01,29,19,01,5.60
2022,01,29,19,02,5.60
2022,01,29,19,03,5.60
2022,01,29,19,04,5.60
2022,01,29,19,05,5.60
2022,01,29,19,06,5.60
2022,01,29,19,07,5.60
2022,01,29,19,08,5.60
2022,01,29,19,09,5.60
2022,01,29,19,10,5.60
2022,01,29,19,11,5.50
2022,01,29,19,12,5.50
2022,01,29,19,13,5.50
2022,01,29,19,14,5.50
2022,01,29,19,15,5.50
2022,01,29,19,16,5.50
2022,01,29,19,17,5.50
2022,01,29,19,18,5.50
2022,01,29,19,19,5.50
2022,01,29,19,20,5.50
2022,01,29,19,21,5.50
2022,01,29,19,22,5.50
2022,01,29,19,23,5.50
2022,01,29,19,24,5.50
2022,01,29,19,25,5.50
2022,01,29,19,26,5.50
2022,01,29,19,27,5.40
2022,01,29,19,28,5.40
2022,01,29,19,29,5.40
2022,01,29,19,30,5.40
2022,01,29,19,31,5.40
2022,01,29,19,32,5.40
2022,01,29,19,33,5.40
2022,01,29,19,34,5.40
2022,01,29,19,35,5.40
2022,01,29,19,36,5.40
2022,01,29,19,37,5.40
2022,01,29,19,38,5.40
2022,01,29,19,39,5.40
2022,01,29,19,40,5.40
2022,01,29,19,41,5.40
2022,01,29,19,42,5.40
2022,01,29,19,43,5.40
2022,01,29,19,44,5.40
2022,01,29,19,45,5.40
2022,01,29,19,46,5.40
2022,01,29,19,47,5.40
2022,01,29,19,48,5.40
2022,01,29,19,49,5.40
2022,01,29,19,50,5.40
2022,01,29,19,51,5.40
2022,01,29,19,52,5.40
2022,01,29,19,53,5.40
2022,01,29,19,54,5.40
2022,01,29,19,55,5.40
2022,01,29,19,56,5.40
2022,01,29,19,57,5.40
2022,01,29,19,58,5.40
2022,01,29,19,59,5.40
2022,01,29,20,00,5.40
2022,01,29,20,01,5.40
2022,01,29,20,02,5.40
2022,01,29,20,03,5.40
2022,01,29,20,04,5.30
2022,01,29,20,05,5.30
2022,01,29,20,06,5.30
2022,01,29,20,07,5.30
2022,01,29,20,08,5.30
2022,01,29,20,09,5.30
2022,01,29,20,10,5.30
2022,01,29,20,11,5.30
2022,01,29,20,12,5.30
2022,01,29,20,13,5.30
2022,01,29,20,14,5.30
2022,01,29,20,15,5.30
2022,01,29,20,16,5.30
2022,01,29,20,17,5.30
2022,01,29,20,18,5.30
2022,01,29,20,19,5.30
2022,01,29,20,20,5.30
2022,01,29,20,21,5.30
2022,01,29,20,22,5.30
2022,01,29,20,23,5.30
2022,01,29,20,24,5.30
2022,01,29,20,25,5.30
2022,01,29,20,26,5.30
2022,01,29,20,27,5.30
2022,01,29,20,28,5.30
2022,01,29,20,29,5.30
2022,01,29,20,30,5.30
2022,01,29,20,31,5.30
2022,01,29,20,32,5.30
2022,01,29,20,33,5.30
2022,01,29,20,34,5.30
2022,01,29,20,35,5.30
2022,01,29,20,36,5.30
2022,01,29,20,37,5.30
2022,01,29,20,38,5.30
2022,01,29,20,39,5.30
2022,01,29,20,40,5.30
2022,01,29,20,41,5.30
2022,01,29,20,42,5.30
2022,01,29,20,43,5.30
2022,01,29,20,44,5.30
2022,01,29,20,45,5.30
2022,01,29,20,46,5.30
2022,01,29,20,47,5.30
2022,01,29,20,48,5.30
2022,01,29,20,49,5.30
2022,01,29,20,50,5.30
2022,01,29,20,51,5.30
2022,01,29,20,52,5.30
2022,01,29,20,53,5.30
2022,01,29,20,54,5.30
2022,01,29,20,55,5.30
2022,01,29,20,56,5.30
2022,01,29,20,57,5.30
2022,01,29,20,58,5.30
2022,01,29,20,59,5.30
2022,01,29,21,00,5.30
2022,01,29,21,01,5.30
2022,01,29,21,02,5.30
2022,01,29,21,03,5.30
2022,01,29,21,04,5.30
2022,01,29,21,05,5.30
2022,01,29,21,06,5.30
2022,01,29,21,07,5.30
2022,01,29,21,08,5.30
2022,01,29,21,09,5.30
2022,01,29,21,10,5.30
2022,01,29,21,11,5.30
2022,01,29,21,12,5.30
2022,01,29,21,13,5.30
2022,01,29,21,14,5.20
2022,01,29,21,15,5.20
2022,01,29,21,16,5.20
2022,01,29,21,17,5.20
2022,01,29,21,18,5.20
2022,01,29,21,19,5.20
2022,01,29,21,20,5.20
2022,01,29,21,21,5.20
2022,01,29,21,22,5.20
2022,01,29,21,23,5.20
2022,01,29,21,24,5.20
2022,01,29,21,25,5.20
2022,01,29,21,26,5.20
2022,01,29,21,27,5.20
2022,01,29,21,28,5.20
2022,01,29,21,29,5.20
2022,01,29,21,30,5.20
2022,01,29,21,31,5.20
2022,01,29,21,32,5.20
2022,01,29,21,33,5.20
2022,01,29,21,34,5.20
2022,01,29,21,35,5.20
2022,01,29,21,36,5.20
2022,01,29,21,37,5.20
2022,01,29,21,38,5.20
2022,01,29,21,39,5.20
2022,01,29,21,40,5.20
2022,01,29,21,41,5.20
2022,01,29,21,42,5.20
2022,01,29,21,43,5.20
2022,01,29,21,44,5.20
2022,01,29,21,45,5.20
2022,01,29,21,46,5.20
2022,01,29,21,47,5.20
2022,01,29,21,48,5.20
2022,01,29,21,49,5.20
2022,01,29,21,50,5.20
2022,01,29,21,51,5.20
2022,01,29,21,52,5.20
2022,01,29,21,53,5.20
2022,01,29,21,54,5.20
2022,01,29,21,55,5.20
2022,01,29,21,56,5.20
2022,01,29,21,57,5.20
2022,01,29,21,58,5.20
2022,01,29,21,59,5.20
2022,01,29,22,00,5.20
2022,01,29,22,01,5.20
2022,01,29,22,02,5.20
2022,01,29,22,03,5.20
2022,01,29,22,04,5.20
2022,01,29,22,05,5.20
2022,01,29,22,06,5.20
2022,01,29,22,07,5.20
2022,01,29,22,08,5.20
2022,01,29,22,09,5.20
2022,01,29,22,10,5.20
2022,01,29,22,11,5.20
2022,01,29,22,12,5.20
2022,01,29,22,13,5.20
2022,01,29,22,14,5.20
2022,01,29,22,15,5.10
2022,01,29,22,16,5.20
2022,01,29,22,17,5.10
2022,01,29,22,18,5.10
2022,01,29,22,19,5.10